QPF
0.00 0.00 0.00 0.00 0.00 0.00 0.00 0.00 0.00 0.00 0.00 0.00 0.00 0.00 0.00 0.00 0.00 0.00 0.00 0.00 0.00 0.00 0.00 0.00 0.00 0.00 0.00 0.00 0.00 0.00 0.00 0.00 0.00 0.00 0.00 0.00 0.00 0.00 0.00 0.00 0.00 0.00 0.00 0.00 0.00
0.00 0.00 0.00 0.00 0.00 0.00 0.00 0.00 0.00 0.00 0.00 0.00 0.00 0.00 0.00 0.00 0.00 0.00 0.00 0.00 0.00 0.00 0.00 0.00 0.00 0.00 0.00 0.00 0.00 0.00 0.00 0.00 0.00 0.00 0.00 0.00 0.00 0.00 0.00 0.00 0.00 0.00 0.00 0.00 0.00
0.00 0.00 0.00 0.00 0.00 0.00 0.00 0.00 0.00 0.00 0.00 0.00 0.00 0.00 0.00 0.00 0.00 0.00 0.00 0.00 0.00 0.00 0.00 0.00 0.00 0.00 0.00 0.00 0.00 0.00 0.00 0.00 0.00 0.00 0.00 0.00 0.00 0.00 0.00 0.00 0.00 0.00 0.00 0.00 0.00
0.00 0.01 0.01 0.00 0.00 0.00 0.00 0.00 0.00 0.00 0.00 0.00 0.00 0.00 0.00 0.00 0.00 0.00 0.00 0.00 0.00 0.00 0.00 0.00 0.00 0.00 0.00 0.00 0.00 0.00 0.00 0.00 0.00 0.00 0.00 0.00 0.00 0.00 0.00 0.00 0.00 0.00 0.00 0.00 0.00
0.00 0.00 0.00 0.00 0.00 0.00 0.00 0.00 0.00 0.00 0.00 0.00 0.00 0.00 0.00 0.00 0.00 0.00 0.00 0.00 0.00 0.00 0.00 0.00 0.00 0.00 0.00 0.00 0.00 0.00 0.00 0.00 0.00 0.00 0.00 0.00 0.00 0.00 0.00 0.00 0.00 0.00 0.00 0.00 0.00
0.00 0.00 0.00 0.00 0.00 0.00 0.00 0.00 0.00 0.00 0.00 0.00 0.00 0.00 0.00 0.00 0.00 0.00 0.00 0.00 0.00 0.00 0.00 0.00 0.00 0.00 0.00 0.00 0.00 0.00 0.00 0.00 0.00 0.00 0.00 0.00 0.00 0.00 0.00 0.00 0.00 0.00 0.00 0.00 0.00
0.00 0.00 0.00 0.00 0.00 0.00 0.00 0.00 0.00 0.00 0.00 0.00 0.00 0.00 0.00 0.00 0.00 0.00 0.00 0.00 0.00 0.00 0.00 0.00 0.00 0.00 0.00 0.00 0.00 0.00 0.00 0.00 0.00 0.00 0.00 0.00 0.00 0.00 0.00 0.00 0.00 0.00 0.00 0.00 0.00
0.00 0.00 0.00 0.00 0.00 0.00 0.00 0.00 0.00 0.00 0.00 0.00 0.00 0.00 0.00 0.00 0.00 0.00 0.00 0.00 0.00 0.00 0.00 0.00 0.00 0.00 0.00 0.00 0.00 0.00 0.00 0.00 0.00 0.00 0.00 0.00 0.00 0.00 0.00 0.00 0.00 0.00 0.00 0.00 0.00
0.00 0.00 0.00 0.00 0.00 0.00 0.00 0.00 0.00 0.00 0.00 0.00 0.00 0.00 0.00 0.00 0.00 0.00 0.00 0.00 0.00 0.00 0.00 0.00 0.00 0.00 0.00 0.00 0.00 0.00 0.00 0.00 0.00 0.00 0.00 0.00 0.00 0.00 0.00 0.00 0.00 0.00 0.00 0.00 0.00
0.00 0.00 0.00 0.00 0.00 0.00 0.00 0.00 0.00 0.00 0.00 0.00 0.00 0.00 0.00 0.00 0.00 0.00 0.00 0.00 0.00 0.00 0.00 0.00 0.00 0.00 0.00 0.00 0.00 0.00 0.00 0.00 0.00 0.00 0.00 0.00 0.00 0.00 0.00 0.00 0.00 0.00 0.00 0.00 0.00
0.01 0.01 0.00 0.00 0.00 0.00 0.00 0.00 0.00 0.00 0.00 0.00 0.00 0.00 0.00 0.00 0.00 0.00 0.00 0.00 0.00 0.00 0.00 0.00 0.00 0.00 0.00 0.00 0.00 0.00 0.00 0.00 0.00 0.00 0.00 0.00 0.00 0.00 0.00 0.00 0.00 0.00 0.00 0.00 0.00
0.01 0.01 0.00 0.00 0.00 0.00 0.00 0.00 0.00 0.00 0.00 0.00 0.00 0.00 0.00 0.00 0.00 0.00 0.00 0.00 0.00 0.00 0.00 0.00 0.00 0.00 0.00 0.00 0.00 0.00 0.00 0.00 0.00 0.00 0.00 0.00 0.00 0.00 0.00 0.00 0.00 0.00 0.00 0.00 0.00
0.00 0.00 0.00 0.00 0.00 0.00 0.00 0.00 0.00 0.00 0.00 0.00 0.00 0.00 0.00 0.00 0.00 0.00 0.00 0.00 0.00 0.00 0.00 0.00 0.00 0.00 0.00 0.00 0.00 0.00 0.00 0.00 0.00 0.00 0.00 0.00 0.00 0.00 0.00 0.00 0.00 0.00 0.00 0.00 0.00
0.00 0.00 0.00 0.00 0.00 0.00 0.00 0.00 0.00 0.00 0.00 0.00 0.00 0.00 0.00 0.00 0.00 0.00 0.00 0.00 0.00 0.00 0.00 0.00 0.00 0.00 0.00 0.00 0.00 0.00 0.00 0.00 0.00 0.00 0.00 0.00 0.00 0.00 0.00 0.00 0.00 0.00 0.00 0.00 0.00
0.00 0.00 0.00 0.01 0.00 0.00 0.00 0.00 0.00 0.00 0.00 0.00 0.00 0.00 0.00 0.00 0.00 0.00 0.00 0.00 0.00 0.00 0.00 0.00 0.00 0.00 0.00 0.00 0.00 0.00 0.00 0.00 0.00 0.00 0.00 0.00 0.00 0.00 0.00 0.00 0.00 0.00 0.00 0.00 0.00
0.00 0.00 0.00 0.00 0.00 0.00 0.00 0.00 0.00 0.00 0.00 0.00 0.00 0.00 0.00 0.00 0.00 0.00 0.00 0.00 0.00 0.00 0.00 0.00 0.00 0.00 0.00 0.00 0.00 0.00 0.00 0.00 0.00 0.00 0.00 0.00 0.00 0.00 0.00 0.00 0.00 0.00 0.00 0.00 0.00
0.00 0.00 0.00 0.00 0.00 0.00 0.00 0.00 0.01 0.00 0.00 0.00 0.00 0.00 0.00 0.00 0.00 0.00 0.00 0.00 0.00 0.00 0.00 0.00 0.00 0.00 0.00 0.00 0.00 0.00 0.00 0.00 0.00 0.00 0.00 0.00 0.00 0.00 0.00 0.00 0.00 0.00 0.00 0.00 0.00
0.00 0.00 0.00 0.00 0.00 0.00 0.00 0.00 0.00 0.00 0.00 0.00 0.00 0.00 0.00 0.00 0.00 0.00 0.00 0.00 0.00 0.00 0.00 0.00 0.00 0.00 0.00 0.00 0.00 0.00 0.00 0.00 0.00 0.00 0.00 0.00 0.00 0.00 0.00 0.00 0.00 0.00 0.00 0.00 0.00
0.00 0.00 0.00 0.00 0.00 0.00 0.00 0.00 0.00 0.01 0.01 0.00 0.00 0.00 0.00 0.00 0.00 0.00 0.00 0.00 0.00 0.00 0.00 0.00 0.00 0.00 0.00 0.00 0.00 0.00 0.00 0.00 0.00 0.00 0.00 0.00 0.00 0.00 0.00 0.00 0.00 0.00 0.00 0.00 0.00
0.00 0.00 0.00 0.00 0.00 0.01 0.00 0.00 0.00 0.01 0.00 0.00 0.00 0.00 0.00 0.00 0.00 0.00 0.00 0.00 0.00 0.00 0.00 0.00 0.00 0.00 0.00 0.00 0.00 0.00 0.00 0.00 0.00 0.00 0.00 0.00 0.00 0.00 0.00 0.00 0.00 0.00 0.00 0.00 0.00
0.00 0.00 0.00 0.00 0.01 0.00 0.00 0.00 0.00 0.00 0.00 0.00 0.00 0.00 0.00 0.00 0.01 0.01 0.00 0.00 0.00 0.00 0.00 0.00 0.00 0.00 0.00 0.00 0.00 0.00 0.00 0.00 0.00 0.00 0.00 0.00 0.00 0.00 0.00 0.00 0.00 0.00 0.00 0.00 0.00
0.00 0.00 0.00 0.00 0.00 0.00 0.00 0.00 0.00 0.00 0.00 0.00 0.01 0.02 0.01 0.01 0.01 0.01 0.01 0.00 0.00 0.00 0.00 0.00 0.00 0.00 0.00 0.00 0.00 0.00 0.00 0.00 0.00 0.00 0.00 0.00 0.00 0.00 0.00 0.00 0.00 0.00 0.00 0.00 0.00
0.00 0.00 0.00 0.00 0.00 0.00 0.00 0.00 0.00 0.00 0.00 0.00 0.00 0.00 0.00 0.00 0.01 0.02 0.01 0.00 0.00 0.00 0.00 0.00 0.00 0.00 0.00 0.00 0.00 0.00 0.00 0.00 0.00 0.00 0.00 0.00 0.00 0.00 0.00 0.00 0.00 0.00 0.00 0.00 0.00
0.00 0.00 0.00 0.00 0.00 0.00 0.00 0.00 0.00 0.00 0.00 0.00 0.00 0.00 0.01 0.00 0.01 0.03 0.02 0.00 0.00 0.00 0.01 0.00 0.00 0.00 0.00 0.00 0.00 0.00 0.00 0.00 0.00 0.00 0.00 0.00 0.00 0.00 0.00 0.00 0.00 0.00 0.00 0.00 0.00
0.00 0.00 0.00 0.00 0.00 0.00 0.00 0.00 0.00 0.00 0.01 0.01 0.01 0.01 0.01 0.01 0.00 0.03 0.01 0.02 0.00 0.00 0.00 0.00 0.00 0.00 0.00 0.00 0.00 0.00 0.00 0.00 0.00 0.00 0.00 0.00 0.00 0.00 0.00 0.00 0.00 0.00 0.00 0.00 0.00
0.00 0.00 0.00 0.00 0.00 0.00 0.00 0.00 0.00 0.00 0.00 0.00 0.01 0.00 0.00 0.00 0.00 0.00 0.00 0.01 0.01 0.01 0.00 0.00 0.00 0.00 0.00 0.00 0.00 0.00 0.00 0.00 0.00 0.00 0.00 0.00 0.00 0.00 0.00 0.00 0.00 0.00 0.00 0.00 0.00
0.00 0.00 0.01 0.00 0.00 0.00 0.00 0.00 0.00 0.00 0.00 0.00 0.00 0.00 0.00 0.00 0.00 0.00 0.00 0.00 0.00 0.00 0.00 0.00 0.00 0.00 0.00 0.00 0.00 0.00 0.00 0.00 0.00 0.00 0.00 0.00 0.00 0.00 0.00 0.00 0.00 0.00 0.00 0.00 0.00
MSLP
1021.04 1020.68 1020.42 1020.24 1020.10 1019.67 1019.23 1019.06 1018.72 1018.58 1018.13 1017.74 1017.41 1017.25 1017.00 1016.52 1016.07 1014.92 1013.56 1011.86 1011.61 1011.77 1012.47 1012.59 1012.50 1012.23 1012.08 1011.79 1011.84 1012.34 1011.61 1009.97 1009.34 1009.01 1007.46 1007.88 1007.94 1008.18 1007.96 1007.47 1007.14 1007.08 1006.71 1006.56 1006.93
1020.86 1020.48 1020.24 1020.02 1019.55 1019.34 1019.39 1019.00 1018.61 1018.57 1018.33 1017.98 1017.69 1017.31 1016.80 1016.33 1015.65 1013.89 1011.43 1010.95 1010.57 1011.55 1012.01 1011.55 1011.91 1012.39 1011.45 1011.37 1011.37 1011.38 1010.62 1009.23 1008.08 1007.77 1007.57 1007.97 1008.19 1008.23 1008.03 1007.28 1006.36 1006.56 1006.35 1006.68 1006.65
1020.95 1020.57 1020.27 1019.91 1019.63 1019.43 1019.00 1018.64 1018.49 1018.26 1017.98 1017.79 1017.52 1017.10 1016.84 1016.41 1015.01 1011.57 1010.58 1010.54 1010.72 1011.23 1010.90 1011.11 1011.15 1011.69 1011.05 1011.14 1010.47 1010.16 1009.18 1008.42 1007.84 1007.51 1008.29 1008.19 1007.87 1007.97 1007.71 1006.40 1005.29 1005.83 1005.55 1005.49 1005.63
1020.82 1020.50 1020.21 1019.88 1019.48 1019.05 1018.64 1018.45 1018.36 1018.10 1017.72 1017.53 1017.11 1016.92 1016.48 1016.13 1013.38 1010.38 1010.67 1010.55 1009.98 1010.64 1010.98 1011.00 1010.72 1011.23 1010.06 1009.96 1009.86 1009.43 1008.66 1008.57 1007.31 1007.83 1008.32 1007.93 1007.88 1007.37 1007.59 1005.49 1005.62 1005.35 1005.32 1005.26 1004.83
1020.72 1020.36 1020.01 1019.65 1019.30 1018.90 1018.56 1018.27 1017.85 1017.69 1017.43 1017.14 1016.70 1016.60 1016.10 1015.35 1011.99 1010.33 1010.54 1010.70 1010.54 1010.86 1010.78 1010.42 1010.21 1010.14 1009.09 1008.94 1009.26 1008.67 1008.31 1007.88 1007.84 1007.94 1008.12 1008.09 1007.69 1007.53 1006.55 1004.56 1005.46 1005.08 1004.78 1004.47 1004.23
1020.65 1020.24 1019.87 1019.46 1019.03 1018.66 1018.25 1017.75 1017.36 1016.89 1016.56 1016.50 1016.59 1016.50 1016.07 1014.32 1011.66 1011.06 1010.86 1010.80 1010.47 1010.41 1010.58 1010.46 1009.80 1009.36 1009.10 1008.58 1008.17 1007.59 1008.05 1007.55 1007.62 1007.75 1007.35 1007.59 1006.91 1007.34 1005.42 1004.04 1004.80 1004.49 1003.98 1003.55 1003.42
1020.51 1020.09 1019.61 1019.13 1018.69 1018.27 1017.79 1017.31 1016.92 1016.63 1016.45 1016.34 1016.30 1015.98 1014.97 1012.34 1011.35 1011.08 1011.00 1011.10 1010.94 1010.72 1010.33 1009.95 1009.83 1009.72 1009.12 1008.40 1007.82 1008.01 1007.81 1007.47 1007.38 1007.24 1007.18 1007.38 1005.41 1005.60 1003.85 1004.26 1004.26 1003.67 1003.17 1002.94 1002.64
1020.33 1019.87 1019.35 1018.83 1018.34 1017.78 1017.20 1016.80 1016.47 1016.02 1015.62 1015.49 1015.67 1015.41 1013.31 1011.82 1011.24 1011.12 1010.98 1010.49 1010.54 1010.62 1010.84 1009.99 1009.83 1009.64 1009.23 1008.49 1007.81 1007.92 1007.37 1006.45 1006.12 1006.56 1006.59 1007.30 1003.14 1003.77 1003.54 1003.84 1003.33 1002.99 1002.64 1002.50 1001.97
1020.10 1019.61 1019.11 1018.56 1017.99 1017.42 1016.83 1016.20 1015.45 1014.96 1014.79 1014.79 1015.23 1014.84 1012.37 1011.33 1010.96 1010.30 1010.54 1010.09 1009.30 1009.52 1009.92 1009.58 1009.47 1008.93 1008.71 1008.22 1007.71 1007.01 1005.46 1005.80 1005.82 1006.00 1005.95 1005.89 1003.33 1003.13 1003.39 1003.36 1003.15 1002.52 1002.14 1001.95 1001.55
1019.95 1019.41 1018.84 1018.26 1017.69 1017.18 1016.60 1015.67 1014.83 1014.70 1014.66 1014.58 1014.30 1014.32 1011.72 1010.48 1009.94 1009.64 1009.36 1009.57 1009.01 1008.72 1009.17 1009.14 1008.62 1007.90 1007.29 1006.69 1003.90 1005.08 1005.72 1005.43 1005.13 1005.21 1005.29 1004.25 1003.04 1003.30 1003.33 1002.87 1002.63 1002.03 1001.55 1001.49 1001.05
1019.87 1019.35 1018.77 1018.21 1017.64 1017.06 1016.30 1015.56 1015.01 1014.81 1014.46 1013.89 1013.14 1012.13 1010.69 1009.64 1009.38 1008.81 1009.00 1009.22 1008.91 1007.69 1006.79 1007.37 1007.46 1004.32 1004.65 1005.47 1005.58 1005.48 1005.21 1004.36 1004.23 1004.59 1004.87 1003.53 1003.37 1003.33 1002.68 1002.40 1002.06 1001.40 1001.01 1000.58 1000.07
1019.66 1019.10 1018.54 1018.06 1017.56 1017.17 1016.89 1016.24 1016.25 1016.53 1014.42 1012.56 1011.50 1011.15 1010.27 1009.92 1009.31 1008.19 1008.59 1008.57 1007.76 1005.97 1006.17 1006.69 1003.62 1002.98 1004.91 1005.30 1005.55 1005.55 1005.07 1004.52 1004.72 1004.76 1004.79 1003.84 1002.91 1002.77 1002.45 1001.65 1001.23 1000.75 1000.12 999.90 999.54
1019.30 1018.78 1018.36 1017.87 1017.32 1017.28 1017.09 1016.55 1016.28 1016.20 1015.05 1011.14 1010.27 1009.88 1009.51 1009.41 1009.16 1007.32 1007.72 1007.17 1006.51 1005.72 1003.98 1002.31 998.32 1003.64 1004.34 1004.44 1004.72 1004.54 1004.37 1004.41 1004.54 1004.50 1004.46 1003.95 1002.56 1001.97 1001.28 1001.01 1000.46 999.87 999.81 999.26 999.32
1018.99 1018.51 1018.08 1017.60 1017.36 1017.23 1016.59 1016.27 1016.21 1016.10 1014.51 1011.01 1009.70 1009.00 1008.54 1008.51 1007.98 1006.78 1006.52 1006.38 1005.55 1004.06 1003.91 1002.50 1001.94 1002.07 1002.79 1002.93 1003.89 1003.32 1004.07 1004.75 1004.77 1005.06 1003.64 1003.82 1001.67 1001.41 1000.91 1000.07 999.20 998.69 998.89 998.55 998.98
1018.79 1018.25 1017.85 1017.62 1017.53 1016.97 1016.50 1016.32 1015.84 1015.71 1013.31 1009.83 1008.84 1008.19 1007.67 1007.76 1006.91 1004.98 1005.56 1005.64 1004.39 1003.51 1003.31 1000.17 1000.88 1001.35 1001.41 1001.59 1002.77 1002.63 1004.05 1004.60 1004.84 1004.64 1004.12 1003.54 1002.92 1000.60 1000.37 998.90 997.84 997.71 997.70 998.11 998.62
1018.47 1017.86 1017.47 1017.07 1017.37 1016.61 1016.36 1016.17 1015.71 1015.01 1011.80 1009.41 1008.48 1008.15 1007.42 1006.70 1006.30 1005.59 1005.15 1005.06 1004.02 1003.67 1002.40 1001.06 1000.61 1000.62 999.69 1001.41 1002.02 1003.28 1003.88 1004.31 1004.53 1004.42 1003.31 1002.83 1002.67 1000.07 999.03 997.59 997.21 996.87 996.97 997.75 998.81
1018.08 1017.55 1017.21 1016.89 1016.67 1016.62 1016.35 1015.76 1015.44 1013.48 1011.07 1009.93 1009.33 1008.81 1007.81 1006.74 1006.29 1005.97 1005.54 1005.01 1003.77 1003.06 1001.99 1001.40 1000.59 999.89 999.87 1000.65 1001.72 1002.77 1003.35 1003.50 1003.65 1003.43 1001.80 1001.49 1001.46 998.79 997.53 996.92 996.89 996.58 996.72 998.10 999.23
1017.68 1017.11 1017.08 1016.81 1016.82 1016.58 1016.51 1015.91 1014.66 1012.67 1011.51 1010.53 1009.99 1008.94 1007.97 1007.29 1006.94 1006.77 1006.20 1004.87 1004.42 1003.16 1001.66 1000.90 1000.09 999.09 998.71 998.74 999.56 1000.98 1001.49 1001.43 1001.71 1001.56 1000.91 1000.97 1000.15 997.66 996.55 995.95 996.09 996.27 996.83 998.24 999.45
1017.32 1016.88 1016.86 1016.74 1016.71 1016.79 1016.55 1015.43 1013.70 1012.77 1012.15 1011.34 1010.39 1009.20 1008.27 1007.96 1008.04 1007.55 1007.60 1006.84 1005.26 1004.49 1003.46 1001.00 999.22 998.08 998.23 998.53 998.86 999.93 1000.16 1000.64 1001.08 1001.57 1000.72 999.98 998.89 997.25 996.17 995.75 995.56 995.94 997.10 998.28 999.44
1017.65 1017.31 1017.03 1016.84 1016.83 1016.82 1016.45 1015.19 1014.12 1013.22 1012.56 1011.81 1010.91 1010.02 1009.13 1008.66 1008.48 1008.19 1009.06 1008.47 1007.69 1006.72 1005.85 1002.51 999.79 998.06 997.85 998.13 998.15 998.22 999.89 1000.73 1000.99 1000.80 1000.09 998.94 998.10 996.50 995.36 995.14 995.25 995.84 996.96 998.35 999.42
1017.85 1017.42 1016.97 1017.09 1016.98 1016.98 1016.35 1015.29 1014.24 1013.14 1012.70 1012.06 1011.26 1010.62 1009.98 1009.42 1009.03 1009.00 1009.41 1009.19 1009.02 1007.62 1006.46 1003.92 1001.33 998.35 997.84 996.38 996.40 998.25 998.47 999.19 1000.03 1000.11 999.27 998.29 996.69 995.75 994.78 994.75 994.91 995.62 996.60 998.07 999.32
1018.13 1017.64 1017.02 1016.87 1017.10 1017.09 1016.40 1015.77 1014.82 1013.30 1012.65 1012.10 1011.56 1010.97 1010.59 1010.17 1009.40 1009.25 1009.44 1009.70 1009.91 1009.49 1007.66 1005.35 1002.76 999.28 996.86 996.44 996.54 996.87 997.05 998.20 998.49 999.45 998.92 998.16 996.26 995.36 995.10 994.85 995.25 995.59 996.61 998.01 999.53
1018.76 1018.30 1017.33 1017.06 1017.26 1017.00 1016.36 1015.65 1014.98 1013.73 1012.89 1012.39 1011.77 1011.36 1010.89 1010.41 1010.04 1009.31 1009.56 1009.52 1009.60 1009.23 1008.58 1006.68 1003.58 1000.35 998.32 997.84 997.02 996.54 997.08 997.71 998.21 998.57 998.22 997.84 995.93 995.14 994.94 995.01 995.47 996.15 996.99 998.28 999.55
1019.13 1018.50 1017.97 1017.54 1017.79 1017.57 1016.74 1015.40 1014.78 1013.87 1013.03 1012.77 1012.07 1011.65 1010.86 1010.08 1009.64 1009.57 1009.51 1009.10 1009.38 1008.92 1008.35 1007.40 1004.79 1001.69 998.78 997.69 997.07 996.71 997.14 997.70 997.90 997.68 997.46 996.68 995.96 994.62 994.46 994.96 995.56 996.60 997.50 998.39 999.34
1019.62 1019.27 1019.02 1018.29 1017.68 1017.62 1017.04 1016.22 1015.17 1014.22 1013.39 1012.83 1012.09 1012.11 1011.81 1010.66 1009.89 1009.68 1009.75 1009.45 1009.14 1008.91 1008.19 1007.16 1005.10 1003.45 1001.10 1000.01 998.82 997.08 997.22 997.43 997.49 997.40 997.04 996.69 996.11 995.31 994.73 995.01 995.73 996.59 997.70 998.70 999.05
1019.88 1019.51 1018.99 1018.50 1017.99 1017.36 1016.57 1016.05 1015.28 1014.44 1014.12 1012.87 1012.42 1011.95 1011.90 1011.28 1010.66 1009.90 1009.66 1009.58 1009.13 1008.59 1007.73 1006.91 1005.47 1004.05 1001.58 1000.15 999.50 998.36 997.71 997.28 997.45 997.51 997.42 997.24 995.99 995.59 995.03 994.99 995.85 996.43 997.26 998.14 998.42
1019.49 1019.37 1019.25 1018.31 1017.67 1017.20 1016.36 1015.90 1015.30 1014.90 1013.57 1013.02 1012.66 1012.29 1011.33 1010.59 1010.02 1009.57 1009.48 1009.18 1008.89 1008.48 1007.71 1006.94 1005.97 1004.53 1002.04 1000.56 999.77 998.74 997.72 997.71 997.76 997.73 998.00 997.34 995.54 996.66 995.99 995.50 995.69 996.17 996.44 997.25 997.60
Thickness
5621 5625 5627 5628 5629 5634 5639 5642 5646 5649 5654 5661 5666 5671 5677 5684 5691 5704 5718 5737 5734 5732 5728 5732 5737 5739 5740 5737 5739 5732 5715 5726 5738 5738 5764 5770 5761 5764 5770 5766 5773 5773 5773 5776 5775
5619 5621 5623 5624 5628 5630 5629 5633 5637 5639 5643 5648 5653 5660 5666 5674 5683 5697 5732 5732 5732 5726 5723 5726 5723 5723 5723 5727 5726 5722 5714 5731 5762 5763 5757 5757 5752 5753 5750 5758 5770 5767 5777 5772 5769
5611 5614 5616 5618 5620 5621 5625 5629 5630 5632 5636 5639 5644 5652 5657 5662 5677 5707 5721 5727 5723 5718 5724 5722 5722 5715 5714 5719 5722 5726 5717 5747 5755 5761 5747 5747 5750 5753 5746 5754 5776 5761 5767 5772 5768
5606 5607 5609 5611 5614 5617 5620 5621 5621 5625 5629 5632 5638 5642 5650 5654 5672 5705 5710 5716 5725 5718 5711 5708 5708 5698 5710 5708 5724 5712 5729 5735 5754 5751 5737 5739 5746 5745 5742 5768 5773 5770 5766 5763 5764
5599 5600 5602 5604 5606 5608 5610 5612 5616 5618 5621 5626 5631 5634 5642 5649 5678 5697 5701 5706 5708 5707 5701 5699 5696 5700 5703 5715 5713 5707 5720 5734 5738 5738 5734 5736 5734 5734 5746 5779 5768 5766 5764 5762 5764
5590 5591 5593 5595 5597 5599 5602 5605 5609 5614 5618 5619 5620 5621 5627 5633 5675 5681 5684 5690 5694 5696 5694 5692 5695 5705 5701 5703 5704 5723 5712 5721 5724 5725 5737 5724 5735 5725 5757 5777 5760 5761 5761 5766 5767
5581 5582 5584 5585 5587 5588 5591 5595 5599 5602 5604 5606 5608 5611 5622 5649 5662 5670 5668 5671 5677 5681 5682 5689 5691 5685 5693 5694 5709 5705 5695 5706 5710 5721 5720 5726 5728 5726 5766 5762 5751 5758 5760 5764 5769
5569 5570 5571 5573 5574 5577 5580 5582 5585 5590 5594 5597 5598 5603 5623 5640 5648 5656 5656 5661 5664 5668 5669 5679 5681 5678 5676 5688 5691 5686 5690 5686 5714 5717 5720 5710 5726 5748 5764 5751 5751 5756 5757 5760 5768
5557 5556 5556 5556 5558 5560 5563 5568 5574 5579 5582 5583 5584 5591 5617 5628 5637 5646 5646 5650 5661 5663 5662 5669 5668 5669 5672 5668 5669 5676 5684 5682 5694 5714 5713 5710 5721 5746 5753 5744 5742 5751 5756 5758 5764
5545 5544 5543 5542 5542 5543 5545 5552 5557 5558 5560 5561 5570 5578 5605 5619 5626 5636 5640 5640 5647 5652 5646 5649 5655 5657 5666 5666 5672 5679 5671 5683 5684 5708 5708 5714 5714 5725 5736 5737 5738 5747 5755 5756 5761
5528 5525 5524 5522 5521 5521 5524 5527 5535 5538 5536 5544 5557 5570 5589 5601 5609 5620 5625 5624 5628 5644 5647 5650 5638 5664 5676 5674 5681 5685 5683 5688 5702 5708 5697 5707 5701 5706 5729 5733 5735 5744 5751 5758 5766
5513 5509 5505 5500 5496 5495 5492 5493 5488 5485 5510 5526 5537 5549 5563 5571 5582 5599 5603 5607 5617 5637 5647 5634 5657 5689 5679 5674 5670 5669 5669 5675 5684 5691 5683 5689 5692 5704 5717 5728 5736 5743 5753 5760 5769
5495 5490 5483 5477 5474 5470 5464 5464 5461 5461 5470 5523 5521 5528 5538 5546 5551 5578 5585 5599 5613 5620 5643 5660 5715 5677 5666 5668 5661 5666 5667 5673 5668 5682 5679 5675 5679 5696 5720 5726 5737 5748 5753 5763 5764
5476 5470 5463 5461 5457 5450 5455 5449 5445 5445 5459 5504 5505 5510 5519 5521 5534 5560 5572 5584 5600 5621 5632 5650 5674 5668 5664 5662 5662 5660 5679 5668 5663 5652 5654 5670 5651 5689 5710 5718 5738 5750 5752 5763 5764
5459 5455 5451 5444 5442 5441 5440 5435 5436 5437 5457 5497 5489 5502 5511 5508 5518 5548 5560 5563 5585 5609 5618 5657 5654 5655 5660 5666 5674 5671 5673 5660 5655 5648 5650 5658 5644 5690 5710 5718 5741 5750 5760 5762 5762
5448 5446 5443 5439 5429 5432 5427 5425 5429 5437 5449 5483 5486 5486 5497 5505 5509 5528 5542 5551 5582 5589 5619 5642 5660 5663 5680 5672 5675 5667 5661 5654 5650 5647 5632 5659 5648 5680 5707 5727 5740 5753 5762 5760 5753
5440 5437 5432 5427 5425 5418 5414 5419 5424 5430 5469 5469 5469 5474 5485 5496 5499 5507 5517 5531 5554 5567 5593 5616 5630 5656 5667 5655 5662 5651 5643 5628 5626 5627 5640 5676 5656 5695 5727 5739 5740 5750 5763 5753 5745
5433 5430 5423 5416 5408 5405 5402 5407 5404 5439 5448 5458 5456 5468 5476 5486 5491 5493 5503 5529 5545 5569 5595 5600 5606 5642 5665 5665 5659 5655 5659 5648 5630 5640 5661 5668 5658 5703 5736 5748 5750 5758 5759 5748 5740
5428 5424 5417 5409 5402 5397 5399 5402 5423 5428 5432 5434 5447 5456 5470 5477 5479 5486 5487 5498 5529 5551 5559 5596 5617 5652 5661 5667 5672 5656 5647 5676 5654 5649 5658 5664 5689 5718 5735 5741 5749 5754 5746 5742 5739
5422 5417 5411 5402 5398 5396 5401 5409 5414 5423 5426 5430 5428 5446 5451 5465 5473 5478 5461 5474 5491 5510 5528 5575 5602 5641 5651 5663 5669 5669 5670 5637 5643 5627 5633 5667 5680 5704 5729 5738 5750 5750 5744 5738 5736
5417 5417 5411 5400 5397 5394 5401 5407 5414 5424 5424 5422 5424 5430 5442 5450 5462 5458 5456 5474 5470 5496 5521 5558 5586 5623 5637 5653 5661 5648 5650 5653 5654 5651 5647 5658 5690 5728 5738 5746 5752 5753 5749 5740 5733
5412 5416 5410 5403 5402 5393 5400 5403 5407 5420 5424 5423 5425 5428 5430 5440 5453 5458 5456 5459 5464 5472 5496 5533 5562 5604 5641 5662 5673 5670 5667 5662 5653 5639 5667 5672 5692 5728 5734 5745 5746 5750 5746 5740 5730
5404 5403 5406 5403 5395 5397 5402 5403 5404 5413 5419 5418 5421 5427 5435 5437 5435 5456 5455 5467 5466 5474 5478 5512 5554 5591 5616 5631 5652 5653 5663 5663 5661 5662 5656 5657 5690 5727 5735 5740 5744 5743 5741 5734 5726
5405 5407 5403 5400 5390 5386 5388 5405 5404 5415 5417 5416 5420 5424 5431 5441 5450 5448 5456 5470 5468 5479 5484 5500 5534 5577 5621 5635 5645 5648 5651 5653 5655 5655 5665 5675 5697 5721 5734 5736 5739 5735 5733 5732 5726
5400 5401 5394 5394 5396 5386 5388 5393 5397 5406 5414 5415 5419 5410 5409 5428 5442 5439 5442 5450 5464 5470 5483 5504 5532 5555 5586 5597 5617 5644 5648 5651 5648 5666 5664 5682 5689 5712 5727 5732 5736 5736 5729 5725 5725
5400 5399 5399 5395 5395 5394 5400 5398 5399 5406 5401 5413 5414 5418 5414 5415 5426 5430 5444 5447 5452 5470 5488 5507 5527 5546 5581 5602 5613 5623 5641 5651 5654 5664 5672 5681 5693 5719 5730 5739 5732 5733 5729 5726 5728
5407 5402 5396 5403 5399 5395 5403 5398 5395 5390 5407 5412 5410 5406 5414 5424 5432 5437 5439 5448 5461 5470 5484 5502 5519 5540 5579 5592 5608 5616 5641 5647 5655 5669 5671 5675 5713 5713 5718 5729 5733 5732 5735 5734 5735